Time,TemperatureF,DewpointF,PressureIn,WindDirection,WindDirectionDegrees,WindSpeedMPH,WindSpeedGustMPH,Humidity,HourlyPrecipIn,Conditions,Clouds,dailyrainin,SolarRadiationWatts/m^2,SoftwareType,DateUTC
2014-01-28 00:03:00,-7.0,-14.0,-100.00,WSW,238,15.0,21.0,71,0.00,,,0.00,0.000000,,2014-01-28 05:03:00,
2014-01-28 00:13:00,-7.0,-14.0,-100.00,WSW,238,15.0,21.0,71,0.00,,,0.00,0.000000,,2014-01-28 05:13:00,
2014-01-28 00:42:00,-7.0,-14.0,-100.00,WSW,243,16.0,24.0,71,0.00,,,0.00,0.000000,,2014-01-28 05:42:00,
2014-01-28 00:53:00,-7.0,-14.0,-100.00,WSW,243,16.0,24.0,71,0.00,,,0.00,0.000000,,2014-01-28 05:53:00,
2014-01-28 01:03:00,-7.0,-14.0,-100.00,WSW,243,16.0,24.0,71,0.00,,,0.00,0.000000,,2014-01-28 06:03:00,
2014-01-28 01:12:00,-7.0,-14.0,-100.00,WSW,243,16.0,24.0,71,0.00,,,0.00,0.000000,,2014-01-28 06:12:00,
2014-01-28 01:42:00,-7.0,-14.0,-100.00,WSW,250,14.0,27.0,70,0.00,,,0.00,0.000000,,2014-01-28 06:42:00,
2014-01-28 01:52:00,-7.0,-14.0,-100.00,WSW,250,14.0,27.0,70,0.00,,,0.00,0.000000,,2014-01-28 06:52:00,
2014-01-28 02:02:00,-7.0,-14.0,-100.00,WSW,250,14.0,27.0,70,0.00,,,0.00,0.000000,,2014-01-28 07:02:00,
2014-01-28 02:12:00,-7.0,-14.0,-100.00,WSW,250,14.0,27.0,70,0.00,,,0.00,0.000000,,2014-01-28 07:12:00,
2014-01-28 02:42:00,-8.0,-15.0,-100.00,WSW,245,13.0,20.0,70,0.00,,,0.00,0.000000,,2014-01-28 07:42:00,
2014-01-28 02:52:00,-8.0,-15.0,-100.00,WSW,245,13.0,20.0,70,0.00,,,0.00,0.000000,,2014-01-28 07:52:00,
2014-01-28 03:02:00,-8.0,-15.0,-100.00,WSW,245,13.0,20.0,70,0.00,,,0.00,0.000000,,2014-01-28 08:02:00,
2014-01-28 03:11:00,-8.0,-15.0,-100.00,WSW,245,13.0,20.0,70,0.00,,,0.00,0.000000,,2014-01-28 08:11:00,
2014-01-28 03:42:00,-9.0,-16.0,-100.00,SW,235,13.0,20.0,69,0.00,,,0.00,0.000000,,2014-01-28 08:42:00,
2014-01-28 03:52:00,-9.0,-16.0,-100.00,SW,235,13.0,20.0,69,0.00,,,0.00,0.000000,,2014-01-28 08:52:00,
2014-01-28 04:02:00,-9.0,-16.0,-100.00,SW,235,13.0,20.0,69,0.00,,,0.00,0.000000,,2014-01-28 09:02:00,
2014-01-28 04:13:00,-9.0,-16.0,-100.00,SW,235,13.0,20.0,69,0.00,,,0.00,0.000000,,2014-01-28 09:13:00,
2014-01-28 04:43:00,-10.0,-18.0,-100.00,WSW,244,13.0,18.0,68,0.00,,,0.00,0.000000,,2014-01-28 09:43:00,
2014-01-28 04:54:00,-10.0,-18.0,-100.00,WSW,244,13.0,18.0,68,0.00,,,0.00,0.000000,,2014-01-28 09:54:00,
2014-01-28 05:03:00,-10.0,-18.0,-100.00,WSW,244,13.0,18.0,68,0.00,,,0.00,0.000000,,2014-01-28 10:03:00,
2014-01-28 05:12:00,-10.0,-18.0,-100.00,WSW,244,13.0,18.0,68,0.00,,,0.00,0.000000,,2014-01-28 10:12:00,
2014-01-28 05:42:00,-11.0,-19.0,-100.00,WSW,240,12.0,19.0,67,0.00,,,0.00,0.000000,,2014-01-28 10:42:00,
2014-01-28 05:53:00,-11.0,-19.0,-100.00,WSW,240,12.0,19.0,67,0.00,,,0.00,0.000000,,2014-01-28 10:53:00,
2014-01-28 06:02:00,-11.0,-19.0,-100.00,WSW,240,12.0,19.0,67,0.00,,,0.00,0.000000,,2014-01-28 11:02:00,
2014-01-28 06:12:00,-11.0,-19.0,-100.00,WSW,240,12.0,19.0,67,0.00,,,0.00,0.000000,,2014-01-28 11:12:00,
2014-01-28 06:42:00,-12.0,-20.0,-100.00,WSW,241,9.0,17.0,68,0.00,,,0.00,0.000000,,2014-01-28 11:42:00,
2014-01-28 06:52:00,-12.0,-20.0,-100.00,WSW,241,9.0,17.0,68,0.00,,,0.00,0.000000,,2014-01-28 11:52:00,
2014-01-28 07:02:00,-12.0,-20.0,-100.00,WSW,241,9.0,17.0,68,0.00,,,0.00,0.000000,,2014-01-28 12:02:00,
2014-01-28 07:12:00,-12.0,-20.0,-100.00,WSW,241,9.0,17.0,68,0.00,,,0.00,0.000000,,2014-01-28 12:12:00,
2014-01-28 07:42:00,-12.0,-20.0,-100.00,SW,236,11.0,15.0,68,0.00,,,0.00,0.000000,,2014-01-28 12:42:00,
2014-01-28 07:52:00,-12.0,-20.0,-100.00,SW,236,11.0,15.0,68,0.00,,,0.00,0.000000,,2014-01-28 12:52:00,
2014-01-28 08:02:00,-12.0,-20.0,-100.00,SW,236,11.0,15.0,68,0.00,,,0.00,0.000000,,2014-01-28 13:02:00,
2014-01-28 08:11:00,-12.0,-20.0,-100.00,SW,236,11.0,15.0,68,0.00,,,0.00,0.000000,,2014-01-28 13:11:00,
2014-01-28 08:42:00,-9.0,-16.0,-100.00,SW,234,13.0,19.0,69,0.00,,,0.00,2.000000,,2014-01-28 13:42:00,
2014-01-28 08:52:00,-9.0,-16.0,-100.00,SW,234,13.0,19.0,69,0.00,,,0.00,2.000000,,2014-01-28 13:52:00,
2014-01-28 09:02:00,-9.0,-16.0,-100.00,SW,234,13.0,19.0,69,0.00,,,0.00,2.000000,,2014-01-28 14:02:00,
2014-01-28 09:12:00,-9.0,-16.0,-100.00,SW,234,13.0,19.0,69,0.00,,,0.00,2.000000,,2014-01-28 14:12:00,
2014-01-28 09:42:00,-9.0,-17.0,-100.00,SW,234,11.0,20.0,66,0.00,,,0.00,95.000000,,2014-01-28 14:42:00,
2014-01-28 09:53:00,-9.0,-17.0,-100.00,SW,234,11.0,20.0,66,0.00,,,0.00,95.000000,,2014-01-28 14:53:00,
2014-01-28 10:02:00,-9.0,-17.0,-100.00,SW,234,11.0,20.0,66,0.00,,,0.00,95.000000,,2014-01-28 15:02:00,
2014-01-28 10:11:00,-9.0,-17.0,-100.00,SW,234,11.0,20.0,66,0.00,,,0.00,95.000000,,2014-01-28 15:11:00,
2014-01-28 10:43:00,-6.0,-15.0,-100.00,SW,225,15.0,20.0,64,0.00,,,0.00,282.000000,,2014-01-28 15:43:00,
2014-01-28 10:53:00,-6.0,-15.0,-100.00,SW,225,15.0,20.0,64,0.00,,,0.00,282.000000,,2014-01-28 15:53:00,
2014-01-28 11:04:00,-6.0,-15.0,-100.00,SW,225,15.0,20.0,64,0.00,,,0.00,282.000000,,2014-01-28 16:04:00,
2014-01-28 11:13:00,-6.0,-15.0,-100.00,SW,225,15.0,20.0,64,0.00,,,0.00,282.000000,,2014-01-28 16:13:00,
2014-01-28 11:43:00,-2.0,-11.0,-100.00,SW,230,12.0,19.0,63,0.00,,,0.00,439.000000,,2014-01-28 16:43:00,
2014-01-28 11:53:00,-2.0,-11.0,-100.00,SW,230,12.0,19.0,63,0.00,,,0.00,439.000000,,2014-01-28 16:53:00,
2014-01-28 12:03:00,-2.0,-11.0,-100.00,SW,230,12.0,19.0,63,0.00,,,0.00,439.000000,,2014-01-28 17:03:00,
2014-01-28 12:12:00,-2.0,-11.0,-100.00,SW,230,12.0,19.0,63,0.00,,,0.00,439.000000,,2014-01-28 17:12:00,
2014-01-28 12:43:00,0.0,-10.0,-100.00,WSW,240,11.0,19.0,61,0.00,,,0.00,550.000000,,2014-01-28 17:43:00,
2014-01-28 12:53:00,0.0,-10.0,-100.00,WSW,240,11.0,19.0,61,0.00,,,0.00,550.000000,,2014-01-28 17:53:00,
2014-01-28 13:03:00,0.0,-10.0,-100.00,WSW,240,11.0,19.0,61,0.00,,,0.00,550.000000,,2014-01-28 18:03:00,
2014-01-28 13:12:00,0.0,-10.0,-100.00,WSW,240,11.0,19.0,61,0.00,,,0.00,550.000000,,2014-01-28 18:12:00,
2014-01-28 13:43:00,1.0,-9.0,-100.00,WSW,238,16.0,23.0,61,0.00,,,0.00,597.000000,,2014-01-28 18:43:00,
2014-01-28 13:52:00,1.0,-9.0,-100.00,WSW,238,16.0,23.0,61,0.00,,,0.00,597.000000,,2014-01-28 18:52:00,
2014-01-28 14:02:00,1.0,-9.0,-100.00,WSW,238,16.0,23.0,61,0.00,,,0.00,597.000000,,2014-01-28 19:02:00,
2014-01-28 14:11:00,1.0,-9.0,-100.00,WSW,238,16.0,23.0,61,0.00,,,0.00,597.000000,,2014-01-28 19:11:00,
2014-01-28 14:52:00,2.0,-9.0,-100.00,SW,226,16.0,25.0,59,0.00,,,0.00,579.000000,,2014-01-28 19:52:00,
2014-01-28 15:02:00,2.0,-9.0,-100.00,SW,226,16.0,25.0,59,0.00,,,0.00,579.000000,,2014-01-28 20:02:00,
2014-01-28 15:12:00,2.0,-9.0,-100.00,SW,226,16.0,25.0,59,0.00,,,0.00,579.000000,,2014-01-28 20:12:00,
2014-01-28 15:42:00,3.0,-6.0,-100.00,SW,231,15.0,26.0,65,0.00,,,0.00,482.000000,,2014-01-28 20:42:00,
2014-01-28 15:52:00,3.0,-6.0,-100.00,SW,231,15.0,26.0,65,0.00,,,0.00,482.000000,,2014-01-28 20:52:00,
2014-01-28 16:02:00,3.0,-6.0,-100.00,SW,231,15.0,26.0,65,0.00,,,0.00,482.000000,,2014-01-28 21:02:00,
2014-01-28 16:11:00,3.0,-6.0,-100.00,SW,231,15.0,26.0,65,0.00,,,0.00,482.000000,,2014-01-28 21:11:00,
2014-01-28 16:44:00,2.0,-7.0,-100.00,SW,226,15.0,23.0,65,0.00,,,0.00,342.000000,,2014-01-28 21:44:00,
2014-01-28 16:53:00,2.0,-7.0,-100.00,SW,226,15.0,23.0,65,0.00,,,0.00,342.000000,,2014-01-28 21:53:00,
2014-01-28 17:03:00,2.0,-7.0,-100.00,SW,226,15.0,23.0,65,0.00,,,0.00,342.000000,,2014-01-28 22:03:00,
2014-01-28 17:13:00,2.0,-7.0,-100.00,SW,226,15.0,23.0,65,0.00,,,0.00,342.000000,,2014-01-28 22:13:00,
2014-01-28 17:43:00,0.0,-8.0,-100.00,WSW,243,11.0,23.0,68,0.00,,,0.00,152.000000,,2014-01-28 22:43:00,
2014-01-28 17:53:00,0.0,-8.0,-100.00,WSW,243,11.0,23.0,68,0.00,,,0.00,152.000000,,2014-01-28 22:53:00,
2014-01-28 18:02:00,0.0,-8.0,-100.00,WSW,243,11.0,23.0,68,0.00,,,0.00,152.000000,,2014-01-28 23:02:00,
2014-01-28 18:12:00,0.0,-8.0,-100.00,WSW,243,11.0,23.0,68,0.00,,,0.00,152.000000,,2014-01-28 23:12:00,
2014-01-28 18:42:00,0.0,-7.0,-100.00,SW,232,13.0,24.0,71,0.00,,,0.00,7.000000,,2014-01-28 23:42:00,
2014-01-28 18:53:00,0.0,-7.0,-100.00,SW,232,13.0,24.0,71,0.00,,,0.00,7.000000,,2014-01-28 23:53:00,
2014-01-28 19:02:00,0.0,-7.0,-100.00,SW,232,13.0,24.0,71,0.00,,,0.00,7.000000,,2014-01-29 00:02:00,
2014-01-28 19:12:00,0.0,-7.0,-100.00,SW,232,13.0,24.0,71,0.00,,,0.00,7.000000,,2014-01-29 00:12:00,
2014-01-28 19:42:00,0.0,-7.0,-100.00,SW,236,12.0,17.0,72,0.00,,,0.00,0.000000,,2014-01-29 00:42:00,
2014-01-28 19:52:00,0.0,-7.0,-100.00,SW,236,12.0,17.0,72,0.00,,,0.00,0.000000,,2014-01-29 00:52:00,
2014-01-28 20:02:00,0.0,-7.0,-100.00,SW,236,12.0,17.0,72,0.00,,,0.00,0.000000,,2014-01-29 01:02:00,
2014-01-28 20:12:00,0.0,-7.0,-100.00,SW,236,12.0,17.0,72,0.00,,,0.00,0.000000,,2014-01-29 01:12:00,
2014-01-28 20:42:00,2.0,-4.0,-100.00,SW,234,10.0,18.0,75,0.00,,,0.00,0.000000,,2014-01-29 01:42:00,
2014-01-28 20:52:00,2.0,-4.0,-100.00,SW,234,10.0,18.0,75,0.00,,,0.00,0.000000,,2014-01-29 01:52:00,
2014-01-28 21:02:00,2.0,-4.0,-100.00,SW,234,10.0,18.0,75,0.00,,,0.00,0.000000,,2014-01-29 02:02:00,
2014-01-28 21:12:00,2.0,-4.0,-100.00,SW,234,10.0,18.0,75,0.00,,,0.00,0.000000,,2014-01-29 02:12:00,
2014-01-28 21:42:00,3.0,-3.0,-100.00,WSW,243,11.0,19.0,75,0.00,,,0.00,0.000000,,2014-01-29 02:42:00,
2014-01-28 21:52:00,3.0,-3.0,-100.00,WSW,243,11.0,19.0,75,0.00,,,0.00,0.000000,,2014-01-29 02:52:00,
2014-01-28 22:02:00,3.0,-3.0,-100.00,WSW,243,11.0,19.0,75,0.00,,,0.00,0.000000,,2014-01-29 03:02:00,
2014-01-28 22:12:00,3.0,-3.0,-100.00,WSW,243,11.0,19.0,75,0.00,,,0.00,0.000000,,2014-01-29 03:12:00,
2014-01-28 22:43:00,3.0,-4.0,-100.00,WSW,244,16.0,26.0,73,0.00,,,0.00,0.000000,,2014-01-29 03:43:00,
2014-01-28 22:54:00,3.0,-4.0,-100.00,WSW,244,16.0,26.0,73,0.00,,,0.00,0.000000,,2014-01-29 03:54:00,
2014-01-28 23:03:00,3.0,-4.0,-100.00,WSW,244,16.0,26.0,73,0.00,,,0.00,0.000000,,2014-01-29 04:03:00,
2014-01-28 23:13:00,3.0,-4.0,-100.00,WSW,244,16.0,26.0,73,0.00,,,0.00,0.000000,,2014-01-29 04:13:00,
2014-01-28 23:43:00,3.0,-3.0,-100.00,WSW,241,13.0,23.0,74,0.00,,,0.00,0.000000,,2014-01-29 04:43:00,
2014-01-28 23:53:00,3.0,-3.0,-100.00,WSW,241,13.0,23.0,74,0.00,,,0.00,0.000000,,2014-01-29 04:53:00,